TimePST,TemperatureF,Dew PointF,Humidity,Sea Level PressureIn,VisibilityMPH,Wind Direction,Wind SpeedMPH,Gust SpeedMPH,PrecipitationIn,Events,Conditions,WindDirDegrees,DateUTC
12:02 AM,30.2,28.4,93,29.13,0.2,NE,3.5,-,N/A,Fog,Light Freezing Fog,40,2012-12-17 08:02:00
12:09 AM,30.2,28.4,93,29.14,1.0,Calm,Calm,-,N/A,,Mist,0,2012-12-17 08:09:00
12:16 AM,30.2,28.4,93,29.13,3.0,Calm,Calm,-,N/A,,Overcast,0,2012-12-17 08:16:00
12:22 AM,30.2,28.4,93,29.14,1.8,South,4.6,-,N/A,,Overcast,170,2012-12-17 08:22:00
12:29 AM,30.2,28.4,93,29.13,0.2,Calm,Calm,-,N/A,Fog,Light Freezing Fog,0,2012-12-17 08:29:00
12:43 AM,30.2,28.4,93,29.12,1.0,Calm,Calm,-,N/A,,Mist,0,2012-12-17 08:43:00
12:55 AM,30.0,28.9,96,29.15,2.0,Calm,Calm,-,N/A,,Overcast,0,2012-12-17 08:55:00
1:13 AM,30.2,28.4,93,29.11,1.2,Calm,Calm,-,0.00,Snow,Light Snow,0,2012-12-17 09:13:00
1:24 AM,30.2,28.4,93,29.10,1.0,Calm,Calm,-,0.00,,Overcast,0,2012-12-17 09:24:00
1:31 AM,30.2,28.4,93,29.10,2.0,Calm,Calm,-,0.00,,Overcast,0,2012-12-17 09:31:00
1:41 AM,30.2,28.4,93,29.10,4.0,Calm,Calm,-,0.00,,Overcast,0,2012-12-17 09:41:00
1:46 AM,30.2,28.4,93,29.10,1.8,Calm,Calm,-,0.00,Snow,Light Snow,0,2012-12-17 09:46:00
1:53 AM,30.2,28.4,93,29.10,0.5,Calm,Calm,-,0.00,Fog,Light Freezing Fog,0,2012-12-17 09:53:00
1:55 AM,30.0,28.0,92,29.13,0.5,Calm,Calm,-,0.00,Fog,Light Freezing Fog,0,2012-12-17 09:55:00
2:14 AM,30.2,28.4,93,29.10,1.0,Calm,Calm,-,0.00,Snow,Light Snow,0,2012-12-17 10:14:00
2:24 AM,30.2,28.4,93,29.09,3.0,Calm,Calm,-,0.00,Snow,Light Snow,0,2012-12-17 10:24:00
2:55 AM,30.0,28.9,96,29.11,4.0,Calm,Calm,-,0.00,Snow,Light Snow,0,2012-12-17 10:55:00
3:31 AM,30.2,28.4,93,29.07,2.5,Calm,Calm,-,0.00,Snow,Light Snow,0,2012-12-17 11:31:00
3:45 AM,30.2,28.4,93,29.06,1.8,Calm,Calm,-,0.00,Snow,Light Snow,0,2012-12-17 11:45:00
3:52 AM,30.2,28.4,93,29.07,3.0,Calm,Calm,-,0.00,Snow,Light Snow,0,2012-12-17 11:52:00
3:53 AM,30.0,28.9,96,29.10,3.0,Calm,Calm,-,0.00,Snow,Light Snow,0,2012-12-17 11:53:00
4:05 AM,30.2,28.4,93,29.06,5.0,Calm,Calm,-,0.00,,Overcast,0,2012-12-17 12:05:00
4:21 AM,30.2,28.4,93,29.06,6.0,Calm,Calm,-,0.00,,Overcast,0,2012-12-17 12:21:00
4:45 AM,30.2,28.4,93,29.09,5.0,WSW,3.5,-,0.01,,Overcast,250,2012-12-17 12:45:00
4:52 AM,30.2,28.4,93,29.09,2.0,Calm,Calm,-,0.01,,Overcast,0,2012-12-17 12:52:00
4:55 AM,30.0,28.9,96,29.12,1.8,NW,3.5,-,0.01,,Overcast,310,2012-12-17 12:55:00
5:13 AM,30.2,28.4,93,29.10,3.0,Calm,Calm,-,0.00,Snow,Light Snow,0,2012-12-17 13:13:00
5:31 AM,30.2,28.4,93,29.09,2.5,Calm,Calm,-,0.00,Snow,Light Snow,0,2012-12-17 13:31:00
5:55 AM,30.0,28.0,92,29.13,1.5,West,5.8,-,0.00,,Mostly Cloudy,260,2012-12-17 13:55:00
5:58 AM,30.2,28.4,93,29.10,0.8,West,3.5,-,N/A,,Overcast,280,2012-12-17 13:58:00
6:09 AM,30.2,28.4,93,29.09,0.2,North,3.5,-,N/A,Fog,Light Freezing Fog,10,2012-12-17 14:09:00
6:20 AM,28.4,26.6,93,29.08,0.2,NNE,8.1,-,N/A,Fog,Light Freezing Fog,20,2012-12-17 14:20:00
6:27 AM,32.0,30.2,93,29.09,1.0,WNW,10.4,19.6,N/A,,Mostly Cloudy,300,2012-12-17 14:27:00
6:30 AM,30.2,28.4,93,29.09,3.0,Calm,Calm,-,N/A,,Mostly Cloudy,0,2012-12-17 14:30:00
6:37 AM,30.2,28.4,93,29.10,10.0,NNW,6.9,-,N/A,,Mostly Cloudy,340,2012-12-17 14:37:00
6:55 AM,35.1,28.9,78,29.15,10.0,NW,19.6,28.8,N/A,,Scattered Clouds,320,2012-12-17 14:55:00
7:55 AM,39.9,28.9,65,29.17,10.0,NW,19.6,28.8,N/A,,Partly Cloudy,320,2012-12-17 15:55:00
8:55 AM,39.9,28.0,63,29.23,10.0,NNW,11.5,18.4,N/A,,Clear,330,2012-12-17 16:55:00
9:55 AM,42.1,25.0,51,29.29,10.0,West,18.4,24.2,N/A,,Clear,260,2012-12-17 17:55:00
10:55 AM,43.0,25.0,49,29.35,10.0,West,16.1,-,N/A,,Partly Cloudy,280,2012-12-17 18:55:00
11:55 AM,41.0,25.0,53,29.42,10.0,West,17.3,29.9,N/A,,Scattered Clouds,280,2012-12-17 19:55:00
12:55 PM,41.0,21.9,47,29.46,10.0,West,18.4,31.1,N/A,,Clear,270,2012-12-17 20:55:00
1:55 PM,39.9,21.0,47,29.52,10.0,West,18.4,-,N/A,,Clear,270,2012-12-17 21:55:00
4:55 PM,37.0,21.0,52,29.65,10.0,WNW,12.7,-,N/A,,Clear,290,2012-12-18 00:55:00
5:55 PM,35.1,21.9,59,29.69,10.0,WNW,10.4,-,N/A,,Clear,290,2012-12-18 01:55:00
6:55 PM,32.0,21.9,66,29.73,10.0,Calm,Calm,-,N/A,,Clear,0,2012-12-18 02:55:00
7:55 PM,32.0,25.0,75,29.75,10.0,NW,3.5,-,N/A,,Clear,320,2012-12-18 03:55:00
8:55 PM,30.0,27.0,88,29.79,10.0,South,5.8,-,N/A,,Clear,180,2012-12-18 04:55:00
9:55 PM,28.0,25.0,88,29.81,10.0,SW,5.8,-,N/A,,Clear,230,2012-12-18 05:55:00
10:55 PM,25.0,23.0,92,29.83,10.0,East,4.6,-,N/A,,Clear,80,2012-12-18 06:55:00
11:55 PM,25.0,23.0,92,29.84,10.0,Variable,4.6,-,N/A,,Clear,0,2012-12-18 07:55:00